Home > Time Zones > World Clock > Weather > India > Theni > Past weeks

Flag for India Weather past 2 weeks in Theni, Tamil Nadu, India

Now
90 °F

Clear.


Feels Like: 87 °F
Forecast: 69 / 98 °F
Wind: 5 mph from East

Location: Coimbatore / Peelamedu

Current Time: Mar 27, 2015 at 7:45:18 PM

Latest Report: Mar 27, 2015 at 7:30 PM


Visibility: 4 mi

Pressure: 29.92 "Hg

Humidity: 26%

Dew point: 50 °F

Location of TheniLocation

Historic Weather in Theni — Graph

°F

Theni temperature yesterday

Maximum temperature yesterday: 93 °F (at 2:30 PM)
Minimum temperature yesterday: 73 °F (at 6:30 AM)
Average temperature yesterday: 85 °F

Past Weeks' High & Low Weather Summary

 TemperatureHumidityPressure
High99 °F (Mar 23, 3:00 PM)94% (Mar 23, 4:30 AM)30.09 "Hg (Mar 23, 4:30 AM)
Low72 °F (Mar 18, 7:00 AM)16% (Mar 18, 1:30 PM)29.80 "Hg (Mar 23, 3:30 PM)
Average86 °F48%29.94 "Hg
* Reported Mar 12 6:30 PM — Mar 27 6:30 PM, Theni, Weather by CustomWeather, © 2015

Note: Actual official high and low records may vary slightly from our data, if they occured in-between our weather recording intervals... More about our weather records

Advertising

Theni weather history for previous 24 hours

 ConditionsComfort  
Time TempWeatherWind HumidityBarometerVisibility
6:30 PM
Fri, Mar 27
91 °FClear.7 mph26%29.89 "Hg4 mi
6:00 PM91 °FClear.12 mph28%29.89 "Hg4 mi
5:30 PM93 °FClear.12 mph26%29.89 "Hg4 mi
5:00 PM93 °FPassing clouds.12 mph24%29.86 "Hg4 mi
4:30 PM93 °FPassing clouds.N/A24%29.86 "Hg4 mi
4:00 PM95 °FPassing clouds.12 mph25%29.89 "Hg4 mi
3:30 PM95 °FClear.9 mph25%29.89 "Hg4 mi
3:00 PM95 °FClear.12 mph26%29.89 "Hg4 mi
2:30 PM93 °FPassing clouds.13 mph32%29.92 "Hg4 mi
2:00 PM93 °FPassing clouds.12 mph34%29.95 "Hg4 mi
1:30 PM91 °FPassing clouds.7 mph38%29.95 "Hg4 mi
1:00 PM91 °FPassing clouds.8 mph38%29.98 "Hg4 mi
12:30 PM90 °FPassing clouds.9 mph41%29.98 "Hg4 mi
12:00 PM88 °FScattered clouds.7 mph24%30.01 "Hg3 mi
9:30 AM79 °FScattered clouds.5 mph70%30.07 "Hg2 mi
8:30 AM77 °FFog.6 mph79%30.07 "Hg2 mi
8:00 AM75 °FFog.6 mph83%30.04 "Hg2 mi
7:30 AM75 °FFog.5 mph83%30.01 "Hg2 mi
6:30 AM75 °FFog.6 mph83%30.01 "Hg2 mi
6:00 AM75 °FFog.6 mph83%30.01 "Hg2 mi
5:30 AM75 °FFog.9 mph83%30.01 "Hg2 mi
4:30 AM77 °FHaze.6 mph65%29.98 "Hg3 mi
3:30 AM77 °FHaze.6 mph65%29.98 "Hg3 mi
2:30 AM79 °FHaze.No wind61%29.98 "Hg3 mi
11:30 PM
Thu, Mar 26
81 °FHaze.5 mph48%30.01 "Hg3 mi
11:00 PM81 °FHaze.5 mph48%30.01 "Hg3 mi
10:00 PM81 °FPassing clouds.3 mph48%30.01 "Hg4 mi
9:30 PM82 °FPassing clouds.5 mph42%29.98 "Hg4 mi
9:00 PM84 °FPassing clouds.3 mph40%29.98 "Hg4 mi
8:30 PM84 °FPassing clouds.No wind40%29.95 "Hg4 mi
8:00 PM86 °FPassing clouds.3 mph40%29.95 "Hg4 mi
7:30 PM86 °FPassing clouds.5 mph40%29.95 "Hg4 mi
7:00 PM88 °FPassing clouds.6 mph35%29.92 "Hg4 mi
Weather by CustomWeather, © 2015

See weather overviewHow to use our weather pages